TimePST,TemperatureF,Dew PointF,Humidity,Sea Level PressureIn,VisibilityMPH,Wind Direction,Wind SpeedMPH,Gust SpeedMPH,PrecipitationIn,Events,Conditions,WindDirDegrees,DateUTC
12:15 AM,51.8,51.8,100,30.00,5.0,SE,3.5,-,N/A,,Scattered Clouds,130,2012-11-16 08:15:00
12:35 AM,53.6,53.6,100,30.00,4.0,Calm,Calm,-,N/A,,Mostly Cloudy,0,2012-11-16 08:35:00
12:55 AM,53.6,53.6,100,30.01,5.0,Calm,Calm,-,N/A,,Mostly Cloudy,0,2012-11-16 08:55:00
1:15 AM,51.8,51.8,100,30.01,5.0,SE,3.5,-,N/A,,Scattered Clouds,140,2012-11-16 09:15:00
1:35 AM,51.8,51.8,100,30.00,4.0,NE,3.5,-,N/A,,Mostly Cloudy,50,2012-11-16 09:35:00
1:55 AM,51.8,51.8,100,30.00,5.0,Calm,Calm,-,N/A,,Partly Cloudy,0,2012-11-16 09:55:00
2:15 AM,53.6,53.6,100,30.01,5.0,Calm,Calm,-,N/A,,Partly Cloudy,0,2012-11-16 10:15:00
2:35 AM,51.8,51.8,100,30.00,5.0,Calm,Calm,-,N/A,,Partly Cloudy,0,2012-11-16 10:35:00
2:55 AM,50.0,50.0,100,30.00,5.0,SE,4.6,-,N/A,,Clear,130,2012-11-16 10:55:00
3:15 AM,48.2,48.2,100,30.00,4.0,East,3.5,-,N/A,,Scattered Clouds,90,2012-11-16 11:15:00
3:35 AM,50.0,50.0,100,30.00,6.0,SSE,4.6,-,N/A,,Overcast,150,2012-11-16 11:35:00
3:55 AM,51.8,51.8,100,29.99,7.0,SE,4.6,-,N/A,,Mostly Cloudy,140,2012-11-16 11:55:00
4:15 AM,53.6,53.6,100,29.99,8.0,SE,6.9,-,N/A,,Mostly Cloudy,130,2012-11-16 12:15:00
4:35 AM,53.6,53.6,100,30.00,8.0,SSE,5.8,-,N/A,,Mostly Cloudy,160,2012-11-16 12:35:00
4:55 AM,53.6,53.6,100,29.99,8.0,SE,3.5,-,N/A,,Mostly Cloudy,130,2012-11-16 12:55:00
5:15 AM,53.6,53.6,100,29.99,8.0,Calm,Calm,-,N/A,,Mostly Cloudy,0,2012-11-16 13:15:00
5:35 AM,53.6,53.6,100,29.99,8.0,Calm,Calm,-,N/A,,Mostly Cloudy,0,2012-11-16 13:35:00
5:55 AM,53.6,53.6,100,30.00,8.0,Calm,Calm,-,N/A,,Scattered Clouds,0,2012-11-16 13:55:00
6:45 AM,53.6,53.6,100,30.00,8.0,ESE,11.5,-,N/A,,Drizzle,120,2012-11-16 14:45:00
7:45 AM,55.4,55.4,100,30.02,7.0,WSW,5.8,-,N/A,,Mostly Cloudy,240,2012-11-16 15:45:00
8:45 AM,55.4,55.4,100,30.04,5.0,SE,8.1,-,N/A,Rain,Rain,140,2012-11-16 16:45:00
9:50 AM,55.4,55.4,100,30.05,5.0,SSE,11.5,-,N/A,Rain,Rain,150,2012-11-16 17:50:00
10:45 AM,55.4,55.4,100,30.05,5.0,SSE,13.8,-,N/A,Rain,Rain,160,2012-11-16 18:45:00
11:45 AM,57.2,57.2,100,30.02,5.0,SSE,13.8,-,N/A,Rain,Light Rain,160,2012-11-16 19:45:00
12:45 PM,59.0,59.0,100,30.00,7.0,SSE,13.8,-,N/A,,Overcast,160,2012-11-16 20:45:00
1:45 PM,62.6,62.6,100,29.99,10.0,ESE,12.7,-,N/A,,Overcast,120,2012-11-16 21:45:00
2:45 PM,62.6,60.8,94,29.98,10.0,SE,5.8,-,N/A,,Overcast,130,2012-11-16 22:45:00
3:45 PM,62.6,59.0,88,29.97,10.0,SE,9.2,-,N/A,,Overcast,130,2012-11-16 23:45:00
4:45 PM,60.8,60.8,100,29.96,10.0,SE,6.9,-,N/A,,Overcast,130,2012-11-17 00:45:00
5:45 PM,60.8,59.0,94,29.96,10.0,SSE,12.7,-,N/A,,Overcast,160,2012-11-17 01:45:00
6:45 PM,57.2,57.2,100,29.96,7.0,SSE,18.4,-,N/A,Rain,Rain,150,2012-11-17 02:45:00
7:55 PM,55.4,55.4,100,29.95,5.0,ESE,11.5,-,N/A,Rain,Rain,120,2012-11-17 03:55:00
8:15 PM,55.4,55.4,100,29.95,8.0,SE,11.5,-,N/A,,Mostly Cloudy,140,2012-11-17 04:15:00
8:35 PM,55.4,55.4,100,29.95,7.0,SE,9.2,-,N/A,,Overcast,140,2012-11-17 04:35:00
8:45 PM,57.2,57.2,100,29.95,10.0,SE,8.1,-,N/A,,Overcast,130,2012-11-17 04:45:00
8:55 PM,57.2,57.2,100,29.95,7.0,SE,6.9,-,N/A,,Overcast,140,2012-11-17 04:55:00
9:15 PM,57.2,57.2,100,29.94,7.0,SE,5.8,-,N/A,,Mostly Cloudy,140,2012-11-17 05:15:00
9:35 PM,57.2,57.2,100,29.94,10.0,SSE,9.2,-,N/A,,Mostly Cloudy,150,2012-11-17 05:35:00
9:55 PM,57.2,57.2,100,29.94,10.0,SSE,6.9,-,N/A,,Overcast,160,2012-11-17 05:55:00
10:15 PM,57.2,57.2,100,29.95,10.0,South,8.1,-,N/A,,Overcast,180,2012-11-17 06:15:00
10:35 PM,57.2,57.2,100,29.95,10.0,SSE,9.2,-,N/A,,Overcast,160,2012-11-17 06:35:00
10:55 PM,57.2,57.2,100,29.95,10.0,South,10.4,-,N/A,,Overcast,170,2012-11-17 06:55:00
11:15 PM,57.2,57.2,100,29.94,10.0,South,11.5,-,N/A,,Mostly Cloudy,170,2012-11-17 07:15:00
11:35 PM,59.0,59.0,100,29.95,10.0,South,12.7,-,N/A,,Mostly Cloudy,180,2012-11-17 07:35:00
11:55 PM,57.2,57.2,100,29.94,10.0,South,13.8,-,0.01,,Overcast,180,2012-11-17 07:55:00